Time,TemperatureF,DewpointF,PressureIn,WindDirection,WindDirectionDegrees,WindSpeedMPH,WindSpeedGustMPH,Humidity,HourlyPrecipIn,Conditions,Clouds,dailyrainin,SoftwareType,DateUTC
2013-03-04 00:00:00,33.4,54.0,29.47,WNW,302,8.0,9.0,0,0.00,,,0.00,meteohub,2013-03-04 05:00:00,
2013-03-04 00:01:00,33.4,54.0,29.47,West,271,5.0,9.0,0,0.00,,,0.00,meteohub,2013-03-04 05:01:00,
2013-03-04 00:03:00,33.6,54.0,29.47,WNW,302,5.0,9.0,0,0.00,,,0.00,meteohub,2013-03-04 05:03:00,
2013-03-04 00:09:00,33.4,54.0,29.47,WNW,303,6.0,8.0,0,0.00,,,0.00,meteohub,2013-03-04 05:09:00,
2013-03-04 00:14:00,33.4,54.0,29.47,WNW,291,6.0,8.0,0,0.00,,,0.00,meteohub,2013-03-04 05:14:00,
2013-03-04 00:19:00,33.6,54.0,29.47,NNW,340,6.0,8.0,0,0.00,,,0.00,meteohub,2013-03-04 05:19:00,
2013-03-04 00:24:00,33.4,54.0,29.47,WSW,248,8.0,8.0,0,0.00,,,0.00,meteohub,2013-03-04 05:24:00,
2013-03-04 00:29:00,33.4,54.0,29.47,NW,312,5.0,8.0,0,0.00,,,0.00,meteohub,2013-03-04 05:29:00,
2013-03-04 00:34:00,33.4,54.0,29.47,NW,317,4.0,8.0,0,0.00,,,0.00,meteohub,2013-03-04 05:34:00,
2013-03-04 00:39:00,33.4,54.0,29.47,North,358,5.0,8.0,0,0.00,,,0.00,meteohub,2013-03-04 05:39:00,
2013-03-04 00:44:00,33.4,54.0,29.47,WNW,288,7.0,8.0,0,0.00,,,0.00,meteohub,2013-03-04 05:44:00,
2013-03-04 00:49:00,33.4,54.0,29.47,West,272,5.0,7.0,0,0.00,,,0.00,meteohub,2013-03-04 05:49:00,
2013-03-04 00:55:00,33.4,54.0,29.47,WSW,239,7.0,7.0,0,0.00,,,0.00,meteohub,2013-03-04 05:55:00,
2013-03-04 01:00:00,33.3,54.0,29.47,NW,324,0.0,7.0,0,0.00,,,0.00,meteohub,2013-03-04 06:00:00,
2013-03-04 01:05:00,33.3,54.0,29.47,NW,319,5.0,7.0,0,0.00,,,0.00,meteohub,2013-03-04 06:05:00,
2013-03-04 01:10:00,33.3,54.0,29.47,WNW,302,7.0,7.0,0,0.00,,,0.00,meteohub,2013-03-04 06:10:00,
2013-03-04 01:15:00,33.3,54.0,29.47,NW,307,6.0,7.0,0,0.00,,,0.00,meteohub,2013-03-04 06:15:00,
2013-03-04 01:20:00,33.3,54.0,29.47,NNE,12,8.0,8.0,0,0.00,,,0.00,meteohub,2013-03-04 06:20:00,
2013-03-04 01:25:00,33.3,54.0,29.47,WNW,289,5.0,8.0,0,0.00,,,0.00,meteohub,2013-03-04 06:25:00,
2013-03-04 01:30:00,33.3,54.0,29.47,NW,305,7.0,8.0,0,0.00,,,0.00,meteohub,2013-03-04 06:30:00,
2013-03-04 01:35:00,33.3,54.0,29.47,NW,316,6.0,8.0,0,0.00,,,0.00,meteohub,2013-03-04 06:35:00,
2013-03-04 01:40:00,33.1,54.0,29.47,WNW,296,6.0,7.0,0,0.00,,,0.00,meteohub,2013-03-04 06:40:00,
2013-03-04 01:46:00,33.1,54.0,29.47,NW,320,5.0,7.0,0,0.00,,,0.00,meteohub,2013-03-04 06:46:00,
2013-03-04 01:51:00,33.1,54.0,29.47,WNW,293,7.0,7.0,0,0.00,,,0.00,meteohub,2013-03-04 06:51:00,
2013-03-04 01:56:00,32.7,54.0,29.47,NW,320,4.0,7.0,0,0.00,,,0.00,meteohub,2013-03-04 06:56:00,
2013-03-04 02:01:00,32.5,54.0,29.46,West,264,6.0,7.0,0,0.00,,,0.00,meteohub,2013-03-04 07:01:00,
2013-03-04 02:06:00,32.4,54.0,29.46,NW,306,8.0,8.0,0,0.00,,,0.00,meteohub,2013-03-04 07:06:00,
2013-03-04 02:11:00,32.2,54.0,29.46,NNW,329,5.0,8.0,0,0.00,,,0.00,meteohub,2013-03-04 07:11:00,
2013-03-04 02:16:00,32.2,54.0,29.46,NW,312,4.0,8.0,0,0.00,,,0.00,meteohub,2013-03-04 07:16:00,
2013-03-04 02:22:00,32.2,54.0,29.46,NW,312,3.0,8.0,0,0.00,,,0.00,meteohub,2013-03-04 07:22:00,
2013-03-04 02:27:00,32.2,54.0,29.46,NW,312,1.0,8.0,0,0.00,,,0.00,meteohub,2013-03-04 07:27:00,
2013-03-04 02:32:00,32.2,54.0,29.46,NW,310,6.0,6.0,0,0.00,,,0.00,meteohub,2013-03-04 07:32:00,
2013-03-04 02:37:00,32.2,54.0,29.47,NW,323,5.0,6.0,0,0.00,,,0.00,meteohub,2013-03-04 07:37:00,
2013-03-04 02:42:00,32.4,54.0,29.47,WNW,295,4.0,6.0,0,0.00,,,0.00,meteohub,2013-03-04 07:42:00,
2013-03-04 02:47:00,32.4,54.0,29.47,NW,312,6.0,6.0,0,0.00,,,0.00,meteohub,2013-03-04 07:47:00,
2013-03-04 02:52:00,32.4,54.0,29.47,West,262,6.0,6.0,0,0.00,,,0.00,meteohub,2013-03-04 07:52:00,
2013-03-04 02:57:00,32.4,55.0,29.47,WNW,282,5.0,6.0,0,0.00,,,0.00,meteohub,2013-03-04 07:57:00,
2013-03-04 03:02:00,32.2,55.0,29.47,WNW,302,5.0,6.0,0,0.00,,,0.00,meteohub,2013-03-04 08:02:00,
2013-03-04 03:07:00,32.0,55.0,29.47,NW,305,7.0,7.0,0,0.00,,,0.00,meteohub,2013-03-04 08:07:00,
2013-03-04 03:12:00,31.8,55.0,29.46,NNW,327,6.0,7.0,0,0.00,,,0.00,meteohub,2013-03-04 08:12:00,
2013-03-04 03:17:00,31.6,55.0,29.46,NW,313,6.0,7.0,0,0.00,,,0.00,meteohub,2013-03-04 08:17:00,
2013-03-04 03:22:00,31.6,55.0,29.46,West,272,3.0,7.0,0,0.00,,,0.00,meteohub,2013-03-04 08:22:00,
2013-03-04 03:27:00,31.5,55.0,29.46,NNW,343,6.0,7.0,0,0.00,,,0.00,meteohub,2013-03-04 08:27:00,
2013-03-04 03:32:00,31.5,55.0,29.46,NW,326,5.0,6.0,0,0.00,,,0.00,meteohub,2013-03-04 08:32:00,
2013-03-04 03:37:00,31.5,55.0,29.46,NNW,336,5.0,6.0,0,0.00,,,0.00,meteohub,2013-03-04 08:37:00,
2013-03-04 03:42:00,31.5,55.0,29.46,WNW,302,6.0,6.0,0,0.00,,,0.00,meteohub,2013-03-04 08:42:00,
2013-03-04 03:47:00,31.5,55.0,29.46,West,265,8.0,8.0,0,0.00,,,0.00,meteohub,2013-03-04 08:47:00,
2013-03-04 03:52:00,31.5,55.0,29.46,WNW,299,3.0,8.0,0,0.00,,,0.00,meteohub,2013-03-04 08:52:00,
2013-03-04 03:58:00,31.5,55.0,29.46,WNW,295,6.0,8.0,0,0.00,,,0.00,meteohub,2013-03-04 08:58:00,
2013-03-04 04:03:00,31.3,55.0,29.46,SW,227,4.0,8.0,0,0.00,,,0.00,meteohub,2013-03-04 09:03:00,
2013-03-04 04:08:00,31.3,55.0,29.46,NW,313,5.0,8.0,0,0.00,,,0.00,meteohub,2013-03-04 09:08:00,
2013-03-04 04:13:00,31.3,55.0,29.46,WNW,302,9.0,9.0,0,0.00,,,0.00,meteohub,2013-03-04 09:13:00,
2013-03-04 04:18:00,31.3,55.0,29.46,West,271,7.0,9.0,0,0.00,,,0.00,meteohub,2013-03-04 09:18:00,
2013-03-04 04:23:00,31.3,55.0,29.46,West,271,0.0,9.0,0,0.00,,,0.00,meteohub,2013-03-04 09:23:00,
2013-03-04 04:28:00,31.3,55.0,29.46,NW,305,7.0,9.0,0,0.00,,,0.00,meteohub,2013-03-04 09:28:00,
2013-03-04 04:34:00,31.3,55.0,29.46,West,278,3.0,7.0,0,0.00,,,0.00,meteohub,2013-03-04 09:34:00,
2013-03-04 04:39:00,31.3,55.0,29.46,WNW,291,8.0,8.0,0,0.00,,,0.00,meteohub,2013-03-04 09:39:00,
2013-03-04 04:44:00,31.1,55.0,29.46,NW,307,5.0,8.0,0,0.00,,,0.00,meteohub,2013-03-04 09:44:00,
2013-03-04 04:49:00,30.9,55.0,29.46,WNW,291,6.0,8.0,0,0.00,,,0.00,meteohub,2013-03-04 09:49:00,
2013-03-04 04:54:00,30.9,55.0,29.46,NW,313,4.0,8.0,0,0.00,,,0.00,meteohub,2013-03-04 09:54:00,
2013-03-04 04:59:00,30.9,55.0,29.46,WNW,284,6.0,8.0,0,0.00,,,0.00,meteohub,2013-03-04 09:59:00,
2013-03-04 05:04:00,30.7,55.0,29.46,NW,326,7.0,7.0,0,0.00,,,0.00,meteohub,2013-03-04 10:04:00,
2013-03-04 05:09:00,30.9,55.0,29.46,NW,310,5.0,7.0,0,0.00,,,0.00,meteohub,2013-03-04 10:09:00,
2013-03-04 05:15:00,30.7,55.0,29.46,WNW,288,5.0,7.0,0,0.00,,,0.00,meteohub,2013-03-04 10:15:00,
2013-03-04 05:20:00,30.7,55.0,29.46,NW,309,10.0,10.0,0,0.00,,,0.00,meteohub,2013-03-04 10:20:00,
2013-03-04 05:25:00,30.7,55.0,29.46,West,271,4.0,10.0,0,0.00,,,0.00,meteohub,2013-03-04 10:25:00,
2013-03-04 05:30:00,30.7,55.0,29.46,WNW,300,4.0,10.0,0,0.00,,,0.00,meteohub,2013-03-04 10:30:00,
2013-03-04 05:35:00,30.7,55.0,29.46,NW,309,5.0,10.0,0,0.00,,,0.00,meteohub,2013-03-04 10:35:00,
2013-03-04 05:40:00,30.7,55.0,29.45,NNW,330,8.0,8.0,0,0.00,,,0.00,meteohub,2013-03-04 10:40:00,
2013-03-04 05:45:00,30.7,55.0,29.45,West,271,9.0,9.0,0,0.00,,,0.00,meteohub,2013-03-04 10:45:00,
2013-03-04 05:50:00,30.7,55.0,29.45,WNW,300,9.0,11.0,0,0.00,,,0.00,meteohub,2013-03-04 10:50:00,
2013-03-04 05:55:00,30.7,55.0,29.45,West,262,5.0,11.0,0,0.00,,,0.00,meteohub,2013-03-04 10:55:00,
2013-03-04 06:01:00,30.7,55.0,29.45,WNW,295,3.0,11.0,0,0.00,,,0.00,meteohub,2013-03-04 11:01:00,
2013-03-04 06:06:00,30.7,55.0,29.45,NW,320,5.0,11.0,0,0.00,,,0.00,meteohub,2013-03-04 11:06:00,
2013-03-04 06:11:00,30.7,55.0,29.45,NW,312,8.0,9.0,0,0.00,,,0.00,meteohub,2013-03-04 11:11:00,
2013-03-04 06:16:00,30.7,55.0,29.45,WNW,303,4.0,8.0,0,0.00,,,0.00,meteohub,2013-03-04 11:16:00,
2013-03-04 06:21:00,30.6,55.0,29.45,WNW,298,6.0,8.0,0,0.00,,,0.00,meteohub,2013-03-04 11:21:00,
2013-03-04 06:26:00,30.6,55.0,29.46,NW,323,5.0,8.0,0,0.00,,,0.00,meteohub,2013-03-04 11:26:00,
2013-03-04 06:31:00,30.6,55.0,29.46,NW,323,9.0,9.0,0,0.00,,,0.00,meteohub,2013-03-04 11:31:00,
2013-03-04 06:36:00,30.7,55.0,29.46,NW,324,6.0,9.0,0,0.00,,,0.00,meteohub,2013-03-04 11:36:00,
2013-03-04 06:41:00,30.7,55.0,29.46,WNW,302,6.0,9.0,0,0.00,,,0.00,meteohub,2013-03-04 11:41:00,
2013-03-04 06:47:00,30.7,55.0,29.46,NNW,338,9.0,9.0,0,0.00,,,0.00,meteohub,2013-03-04 11:47:00,
2013-03-04 06:52:00,30.9,55.0,29.46,WNW,285,10.0,10.0,0,0.00,,,0.00,meteohub,2013-03-04 11:52:00,
2013-03-04 06:57:00,31.1,55.0,29.46,WNW,291,11.0,11.0,0,0.00,,,0.00,meteohub,2013-03-04 11:57:00,
2013-03-04 07:02:00,31.3,55.0,29.46,NW,319,9.0,11.0,0,0.00,,,0.00,meteohub,2013-03-04 12:02:00,
2013-03-04 07:07:00,31.3,55.0,29.46,WNW,292,5.0,11.0,0,0.00,,,0.00,meteohub,2013-03-04 12:07:00,
2013-03-04 07:12:00,31.3,55.0,29.46,WNW,300,5.0,11.0,0,0.00,,,0.00,meteohub,2013-03-04 12:12:00,
2013-03-04 07:17:00,31.1,55.0,29.46,NW,326,10.0,11.0,0,0.00,,,0.00,meteohub,2013-03-04 12:17:00,
2013-03-04 07:22:00,31.3,55.0,29.46,NNW,347,4.0,10.0,0,0.00,,,0.00,meteohub,2013-03-04 12:22:00,
2013-03-04 07:27:00,31.1,55.0,29.47,WNW,286,4.0,10.0,0,0.00,,,0.00,meteohub,2013-03-04 12:27:00,
2013-03-04 07:32:00,31.1,55.0,29.46,NW,313,6.0,10.0,0,0.00,,,0.00,meteohub,2013-03-04 12:32:00,
2013-03-04 07:37:00,31.1,55.0,29.46,North,354,8.0,10.0,0,0.00,,,0.00,meteohub,2013-03-04 12:37:00,
2013-03-04 07:42:00,31.1,55.0,29.47,NW,306,6.0,8.0,0,0.00,,,0.00,meteohub,2013-03-04 12:42:00,
2013-03-04 07:47:00,30.9,55.0,29.46,WNW,302,8.0,8.0,0,0.00,,,0.00,meteohub,2013-03-04 12:47:00,
2013-03-04 07:52:00,30.9,54.0,29.46,NW,322,9.0,9.0,0,0.00,,,0.00,meteohub,2013-03-04 12:52:00,
2013-03-04 07:57:00,30.9,55.0,29.46,WNW,292,7.0,9.0,0,0.00,,,0.00,meteohub,2013-03-04 12:57:00,
2013-03-04 08:02:00,30.9,55.0,29.46,WNW,292,7.0,9.0,0,0.00,,,0.00,meteohub,2013-03-04 13:02:00,
2013-03-04 08:07:00,31.1,55.0,29.46,NNW,334,7.0,9.0,0,0.00,,,0.00,meteohub,2013-03-04 13:07:00,
2013-03-04 08:12:00,31.1,54.0,29.46,NW,316,8.0,9.0,0,0.00,,,0.00,meteohub,2013-03-04 13:12:00,
2013-03-04 08:17:00,31.1,54.0,29.46,West,281,6.0,8.0,0,0.00,,,0.00,meteohub,2013-03-04 13:17:00,
2013-03-04 08:22:00,30.9,54.0,29.46,WNW,293,7.0,8.0,0,0.00,,,0.00,meteohub,2013-03-04 13:22:00,
2013-03-04 08:27:00,31.1,54.0,29.46,NNW,340,5.0,8.0,0,0.00,,,0.00,meteohub,2013-03-04 13:27:00,
2013-03-04 08:32:00,31.1,55.0,29.46,NW,317,6.0,8.0,0,0.00,,,0.00,meteohub,2013-03-04 13:32:00,
2013-03-04 08:37:00,31.1,54.0,29.46,WNW,285,8.0,8.0,0,0.00,,,0.00,meteohub,2013-03-04 13:37:00,
2013-03-04 08:42:00,31.1,55.0,29.46,WNW,302,8.0,8.0,0,0.00,,,0.00,meteohub,2013-03-04 13:42:00,
2013-03-04 08:47:00,31.1,54.0,29.46,NW,305,6.0,8.0,0,0.00,,,0.00,meteohub,2013-03-04 13:47:00,
2013-03-04 08:52:00,30.9,54.0,29.46,NNW,341,8.0,8.0,0,0.00,,,0.00,meteohub,2013-03-04 13:52:00,
2013-03-04 08:57:00,30.9,55.0,29.46,North,2,8.0,8.0,0,0.00,,,0.00,meteohub,2013-03-04 13:57:00,
2013-03-04 09:02:00,30.9,54.0,29.46,WNW,303,6.0,8.0,0,0.00,,,0.00,meteohub,2013-03-04 14:02:00,
2013-03-04 09:07:00,30.7,54.0,29.46,WNW,282,7.0,8.0,0,0.00,,,0.00,meteohub,2013-03-04 14:07:00,
2013-03-04 09:12:00,30.9,54.0,29.46,NW,316,9.0,9.0,0,0.00,,,0.00,meteohub,2013-03-04 14:12:00,
2013-03-04 09:17:00,30.9,54.0,29.45,NNE,16,9.0,9.0,0,0.00,,,0.00,meteohub,2013-03-04 14:17:00,
2013-03-04 09:22:00,30.9,54.0,29.46,NNW,330,6.0,9.0,0,0.00,,,0.00,meteohub,2013-03-04 14:22:00,
2013-03-04 09:27:00,30.9,54.0,29.46,WNW,295,6.0,9.0,0,0.00,,,0.00,meteohub,2013-03-04 14:27:00,
2013-03-04 09:32:00,30.9,54.0,29.45,WNW,295,5.0,9.0,0,0.00,,,0.00,meteohub,2013-03-04 14:32:00,
2013-03-04 09:37:00,30.9,54.0,29.45,NW,315,6.0,9.0,0,0.00,,,0.00,meteohub,2013-03-04 14:37:00,
2013-03-04 09:42:00,31.1,54.0,29.45,WNW,288,7.0,7.0,0,0.00,,,0.00,meteohub,2013-03-04 14:42:00,
2013-03-04 09:47:00,31.1,54.0,29.45,NW,313,4.0,7.0,0,0.00,,,0.00,meteohub,2013-03-04 14:47:00,
2013-03-04 09:52:00,31.3,54.0,29.45,WNW,300,6.0,7.0,0,0.00,,,0.00,meteohub,2013-03-04 14:52:00,
2013-03-04 09:57:00,31.3,54.0,29.45,NW,306,8.0,8.0,0,0.00,,,0.00,meteohub,2013-03-04 14:57:00,
2013-03-04 10:02:00,31.5,54.0,29.45,WNW,298,9.0,9.0,0,0.00,,,0.00,meteohub,2013-03-04 15:02:00,
2013-03-04 10:07:00,31.5,54.0,29.45,NW,313,5.0,9.0,0,0.00,,,0.00,meteohub,2013-03-04 15:07:00,
2013-03-04 10:12:00,31.5,54.0,29.45,NW,320,9.0,9.0,0,0.00,,,0.00,meteohub,2013-03-04 15:12:00,
2013-03-04 10:17:00,31.5,54.0,29.45,NW,310,9.0,9.0,0,0.00,,,0.00,meteohub,2013-03-04 15:17:00,
2013-03-04 10:22:00,31.6,54.0,29.45,WNW,300,8.0,9.0,0,0.00,,,0.00,meteohub,2013-03-04 15:22:00,
2013-03-04 10:27:00,31.6,54.0,29.45,WSW,254,6.0,9.0,0,0.00,,,0.00,meteohub,2013-03-04 15:27:00,
2013-03-04 10:32:00,31.6,54.0,29.44,West,271,7.0,9.0,0,0.00,,,0.00,meteohub,2013-03-04 15:32:00,
2013-03-04 10:37:00,32.0,54.0,29.44,WNW,298,8.0,9.0,0,0.00,,,0.00,meteohub,2013-03-04 15:37:00,
2013-03-04 10:42:00,32.2,54.0,29.44,WNW,288,9.0,9.0,0,0.00,,,0.00,meteohub,2013-03-04 15:42:00,
2013-03-04 10:47:00,32.0,54.0,29.44,NW,323,9.0,9.0,0,0.00,,,0.00,meteohub,2013-03-04 15:47:00,
2013-03-04 10:52:00,32.0,54.0,29.44,NW,316,9.0,9.0,0,0.00,,,0.00,meteohub,2013-03-04 15:52:00,
2013-03-04 10:57:00,32.2,54.0,29.44,NNW,327,8.0,9.0,0,0.00,,,0.00,meteohub,2013-03-04 15:57:00,
2013-03-04 11:02:00,32.5,54.0,29.44,NNE,25,7.0,9.0,0,0.00,,,0.00,meteohub,2013-03-04 16:02:00,
2013-03-04 11:07:00,32.5,54.0,29.44,North,1,6.0,9.0,0,0.00,,,0.00,meteohub,2013-03-04 16:07:00,
2013-03-04 11:12:00,32.5,54.0,29.44,NW,307,7.0,9.0,0,0.00,,,0.00,meteohub,2013-03-04 16:12:00,
2013-03-04 11:17:00,32.4,54.0,29.44,NW,324,9.0,9.0,0,0.00,,,0.00,meteohub,2013-03-04 16:17:00,
2013-03-04 11:22:00,32.5,54.0,29.44,North,351,11.0,11.0,0,0.00,,,0.00,meteohub,2013-03-04 16:22:00,
2013-03-04 11:27:00,32.4,54.0,29.44,NW,317,9.0,11.0,0,0.00,,,0.00,meteohub,2013-03-04 16:27:00,
2013-03-04 11:32:00,32.7,54.0,29.44,NW,317,7.0,11.0,0,0.00,,,0.00,meteohub,2013-03-04 16:32:00,
2013-03-04 11:37:00,32.9,54.0,29.44,NW,305,6.0,11.0,0,0.00,,,0.00,meteohub,2013-03-04 16:37:00,
2013-03-04 11:42:00,33.1,54.0,29.44,WNW,291,7.0,11.0,0,0.00,,,0.00,meteohub,2013-03-04 16:42:00,
2013-03-04 11:47:00,32.9,54.0,29.44,NW,322,9.0,9.0,0,0.00,,,0.00,meteohub,2013-03-04 16:47:00,
2013-03-04 11:52:00,33.1,54.0,29.44,WNW,298,7.0,9.0,0,0.00,,,0.00,meteohub,2013-03-04 16:52:00,
2013-03-04 11:57:00,33.1,54.0,29.44,WNW,296,9.0,9.0,0,0.00,,,0.00,meteohub,2013-03-04 16:57:00,
2013-03-04 12:02:00,33.3,54.0,29.44,NW,305,4.0,9.0,0,0.00,,,0.00,meteohub,2013-03-04 17:02:00,
2013-03-04 12:07:00,33.3,54.0,29.44,NNW,327,6.0,9.0,0,0.00,,,0.00,meteohub,2013-03-04 17:07:00,
2013-03-04 12:12:00,33.1,54.0,29.44,NW,317,9.0,9.0,0,0.00,,,0.00,meteohub,2013-03-04 17:12:00,
2013-03-04 12:17:00,32.9,54.0,29.43,NW,313,8.0,9.0,0,0.00,,,0.00,meteohub,2013-03-04 17:17:00,
2013-03-04 12:22:00,33.1,54.0,29.43,West,274,5.0,9.0,0,0.00,,,0.00,meteohub,2013-03-04 17:22:00,
2013-03-04 12:27:00,33.1,54.0,29.43,West,261,7.0,9.0,0,0.00,,,0.00,meteohub,2013-03-04 17:27:00,
2013-03-04 12:32:00,33.3,54.0,29.43,WNW,300,10.0,10.0,0,0.00,,,0.00,meteohub,2013-03-04 17:32:00,
2013-03-04 12:37:00,33.3,54.0,29.43,NW,313,6.0,10.0,0,0.00,,,0.00,meteohub,2013-03-04 17:37:00,
2013-03-04 12:42:00,33.3,54.0,29.43,NW,317,7.0,10.0,0,0.00,,,0.00,meteohub,2013-03-04 17:42:00,
2013-03-04 12:47:00,33.3,54.0,29.43,NW,315,9.0,10.0,0,0.00,,,0.00,meteohub,2013-03-04 17:47:00,
2013-03-04 12:52:00,33.1,54.0,29.43,NW,323,9.0,10.0,0,0.00,,,0.00,meteohub,2013-03-04 17:52:00,
2013-03-04 12:57:00,33.1,54.0,29.43,West,262,8.0,9.0,0,0.00,,,0.00,meteohub,2013-03-04 17:57:00,
2013-03-04 13:02:00,32.9,54.0,29.43,NW,305,10.0,10.0,0,0.00,,,0.00,meteohub,2013-03-04 18:02:00,
2013-03-04 13:07:00,32.9,54.0,29.42,WNW,299,10.0,10.0,0,0.00,,,0.00,meteohub,2013-03-04 18:07:00,
2013-03-04 13:12:00,32.9,54.0,29.42,NW,305,9.0,10.0,0,0.00,,,0.00,meteohub,2013-03-04 18:12:00,
2013-03-04 13:17:00,32.7,55.0,29.42,NW,310,6.0,10.0,0,0.00,,,0.00,meteohub,2013-03-04 18:17:00,
2013-03-04 13:22:00,32.7,55.0,29.43,West,264,9.0,10.0,0,0.00,,,0.00,meteohub,2013-03-04 18:22:00,
2013-03-04 13:27:00,33.1,55.0,29.43,NW,316,7.0,10.0,0,0.00,,,0.00,meteohub,2013-03-04 18:27:00,
2013-03-04 13:29:00,33.3,55.0,29.43,NW,316,7.0,10.0,0,0.00,,,0.00,meteohub,2013-03-04 18:29:00,
2013-03-04 13:30:00,33.3,55.0,29.42,NW,316,7.0,9.0,0,0.00,,,0.00,meteohub,2013-03-04 18:30:00,
2013-03-04 13:31:00,33.3,55.0,29.43,WNW,296,5.0,9.0,0,0.00,,,0.00,meteohub,2013-03-04 18:31:00,
2013-03-04 13:33:00,33.3,55.0,29.43,NW,315,5.0,9.0,0,0.00,,,0.00,meteohub,2013-03-04 18:33:00,
2013-03-04 13:38:00,33.4,55.0,29.43,NW,306,7.0,9.0,0,0.00,,,0.00,meteohub,2013-03-04 18:38:00,
2013-03-04 13:43:00,33.6,55.0,29.42,North,358,9.0,9.0,0,0.00,,,0.00,meteohub,2013-03-04 18:43:00,
2013-03-04 13:48:00,33.6,55.0,29.43,NW,322,6.0,9.0,0,0.00,,,0.00,meteohub,2013-03-04 18:48:00,
2013-03-04 13:53:00,33.6,55.0,29.43,NW,324,7.0,9.0,0,0.00,,,0.00,meteohub,2013-03-04 18:53:00,
2013-03-04 13:58:00,34.0,55.0,29.43,West,281,9.0,9.0,0,0.00,,,0.00,meteohub,2013-03-04 18:58:00,
2013-03-04 14:03:00,34.2,55.0,29.43,WSW,257,7.0,9.0,0,0.00,,,0.00,meteohub,2013-03-04 19:03:00,
2013-03-04 14:09:00,33.6,55.0,29.43,NNW,330,6.0,9.0,0,0.00,,,0.00,meteohub,2013-03-04 19:09:00,
2013-03-04 14:14:00,33.6,55.0,29.44,WNW,285,10.0,10.0,0,0.00,,,0.00,meteohub,2013-03-04 19:14:00,
2013-03-04 14:19:00,33.6,55.0,29.44,NW,306,8.0,10.0,0,0.00,,,0.00,meteohub,2013-03-04 19:19:00,
2013-03-04 14:24:00,34.2,55.0,29.44,NNW,331,6.0,10.0,0,0.00,,,0.00,meteohub,2013-03-04 19:24:00,
2013-03-04 14:29:00,34.3,55.0,29.44,WNW,296,6.0,10.0,0,0.00,,,0.00,meteohub,2013-03-04 19:29:00,
2013-03-04 14:34:00,34.5,55.0,29.44,NW,320,7.0,10.0,0,0.00,,,0.00,meteohub,2013-03-04 19:34:00,
2013-03-04 14:40:00,34.2,55.0,29.44,NW,313,6.0,8.0,0,0.00,,,0.00,meteohub,2013-03-04 19:40:00,
2013-03-04 14:45:00,33.6,55.0,29.44,NNW,336,4.0,7.0,0,0.00,,,0.00,meteohub,2013-03-04 19:45:00,
2013-03-04 14:50:00,33.4,55.0,29.44,WNW,299,7.0,7.0,0,0.00,,,0.00,meteohub,2013-03-04 19:50:00,
2013-03-04 14:55:00,33.3,55.0,29.44,WNW,299,3.0,7.0,0,0.00,,,0.00,meteohub,2013-03-04 19:55:00,
2013-03-04 15:00:00,33.4,55.0,29.45,WNW,300,0.0,7.0,0,0.00,,,0.00,meteohub,2013-03-04 20:00:00,
2013-03-04 15:05:00,33.6,55.0,29.45,WNW,285,5.0,7.0,0,0.00,,,0.00,meteohub,2013-03-04 20:05:00,
2013-03-04 15:10:00,33.6,55.0,29.45,NW,317,6.0,6.0,0,0.00,,,0.00,meteohub,2013-03-04 20:10:00,
2013-03-04 15:15:00,33.6,55.0,29.45,WNW,300,4.0,6.0,0,0.00,,,0.00,meteohub,2013-03-04 20:15:00,
2013-03-04 15:21:00,33.6,55.0,29.45,NW,306,4.0,6.0,0,0.00,,,0.00,meteohub,2013-03-04 20:21:00,
2013-03-04 15:26:00,33.6,55.0,29.45,NW,307,5.0,6.0,0,0.00,,,0.00,meteohub,2013-03-04 20:26:00,
2013-03-04 15:31:00,33.8,55.0,29.45,West,278,4.0,6.0,0,0.00,,,0.00,meteohub,2013-03-04 20:31:00,
2013-03-04 15:36:00,34.0,55.0,29.45,WNW,302,9.0,9.0,0,0.00,,,0.00,meteohub,2013-03-04 20:36:00,
2013-03-04 15:41:00,34.0,55.0,29.45,NW,309,4.0,9.0,0,0.00,,,0.00,meteohub,2013-03-04 20:41:00,
2013-03-04 15:46:00,34.0,55.0,29.46,NW,323,7.0,9.0,0,0.00,,,0.00,meteohub,2013-03-04 20:46:00,
2013-03-04 15:51:00,33.6,55.0,29.46,WNW,296,4.0,9.0,0,0.00,,,0.00,meteohub,2013-03-04 20:51:00,
2013-03-04 15:56:00,33.4,55.0,29.46,NW,310,6.0,9.0,0,0.00,,,0.00,meteohub,2013-03-04 20:56:00,
2013-03-04 16:02:00,33.3,55.0,29.46,NW,316,6.0,7.0,0,0.00,,,0.00,meteohub,2013-03-04 21:02:00,
2013-03-04 16:07:00,33.1,55.0,29.46,WNW,293,8.0,8.0,0,0.00,,,0.00,meteohub,2013-03-04 21:07:00,
2013-03-04 16:12:00,33.1,55.0,29.46,SW,219,4.0,8.0,0,0.00,,,0.00,meteohub,2013-03-04 21:12:00,
2013-03-04 16:17:00,33.1,55.0,29.47,SW,219,0.0,8.0,0,0.00,,,0.00,meteohub,2013-03-04 21:17:00,
2013-03-04 16:22:00,33.1,55.0,29.47,SW,219,0.0,8.0,0,0.00,,,0.00,meteohub,2013-03-04 21:22:00,
2013-03-04 16:27:00,33.1,55.0,29.47,WNW,295,4.0,8.0,0,0.00,,,0.00,meteohub,2013-03-04 21:27:00,
2013-03-04 16:32:00,33.1,55.0,29.47,NW,305,0.0,4.0,0,0.00,,,0.00,meteohub,2013-03-04 21:32:00,
2013-03-04 16:37:00,33.3,55.0,29.47,NW,305,3.0,4.0,0,0.00,,,0.00,meteohub,2013-03-04 21:37:00,
2013-03-04 16:42:00,33.1,55.0,29.47,NW,313,4.0,4.0,0,0.00,,,0.00,meteohub,2013-03-04 21:42:00,
2013-03-04 16:47:00,33.1,55.0,29.48,NW,310,2.0,4.0,0,0.00,,,0.00,meteohub,2013-03-04 21:47:00,
2013-03-04 16:52:00,33.1,55.0,29.48,North,354,4.0,4.0,0,0.00,,,0.00,meteohub,2013-03-04 21:52:00,
2013-03-04 16:57:00,32.9,55.0,29.48,WNW,303,5.0,5.0,0,0.00,,,0.00,meteohub,2013-03-04 21:57:00,
2013-03-04 17:02:00,32.5,55.0,29.49,WNW,300,6.0,6.0,0,0.00,,,0.00,meteohub,2013-03-04 22:02:00,
2013-03-04 17:07:00,32.5,55.0,29.49,WNW,302,6.0,6.0,0,0.00,,,0.00,meteohub,2013-03-04 22:07:00,
2013-03-04 17:12:00,32.4,55.0,29.49,NNE,19,6.0,6.0,0,0.00,,,0.00,meteohub,2013-03-04 22:12:00,
2013-03-04 17:17:00,32.4,55.0,29.50,NNE,19,0.0,6.0,0,0.00,,,0.00,meteohub,2013-03-04 22:17:00,
2013-03-04 17:22:00,32.4,55.0,29.50,NNE,19,0.0,6.0,0,0.00,,,0.00,meteohub,2013-03-04 22:22:00,
2013-03-04 17:27:00,32.5,55.0,29.50,NNE,19,0.0,6.0,0,0.00,,,0.00,meteohub,2013-03-04 22:27:00,
2013-03-04 17:32:00,32.5,55.0,29.50,NW,320,4.0,6.0,0,0.00,,,0.00,meteohub,2013-03-04 22:32:00,
2013-03-04 17:38:00,32.5,55.0,29.50,NNW,329,4.0,4.0,0,0.00,,,0.00,meteohub,2013-03-04 22:38:00,
2013-03-04 17:43:00,32.5,55.0,29.50,WNW,289,4.0,4.0,0,0.00,,,0.00,meteohub,2013-03-04 22:43:00,
2013-03-04 17:48:00,32.5,55.0,29.50,WNW,282,4.0,4.0,0,0.00,,,0.00,meteohub,2013-03-04 22:48:00,
2013-03-04 17:53:00,32.4,55.0,29.51,West,277,5.0,5.0,0,0.00,,,0.00,meteohub,2013-03-04 22:53:00,
2013-03-04 17:58:00,32.4,55.9,29.51,WNW,291,5.0,5.0,0,0.00,,,0.00,meteohub,2013-03-04 22:58:00,
2013-03-04 18:03:00,32.5,55.9,29.51,WNW,282,7.0,7.0,0,0.00,,,0.00,meteohub,2013-03-04 23:03:00,
2013-03-04 18:09:00,32.5,55.9,29.51,WNW,285,6.0,7.0,0,0.00,,,0.00,meteohub,2013-03-04 23:09:00,
2013-03-04 18:14:00,32.4,55.9,29.52,NW,310,4.0,7.0,0,0.00,,,0.00,meteohub,2013-03-04 23:14:00,
2013-03-04 18:19:00,32.5,55.9,29.52,NW,312,7.0,7.0,0,0.00,,,0.00,meteohub,2013-03-04 23:19:00,
2013-03-04 18:24:00,32.5,55.9,29.52,WNW,302,8.0,8.0,0,0.00,,,0.00,meteohub,2013-03-04 23:24:00,
2013-03-04 18:29:00,32.5,55.9,29.52,NW,307,6.0,8.0,0,0.00,,,0.00,meteohub,2013-03-04 23:29:00,
2013-03-04 18:34:00,32.5,55.9,29.52,NW,322,5.0,8.0,0,0.00,,,0.00,meteohub,2013-03-04 23:34:00,
2013-03-04 18:39:00,32.5,55.9,29.52,WNW,292,0.0,8.0,0,0.00,,,0.00,meteohub,2013-03-04 23:39:00,
2013-03-04 18:45:00,32.7,55.9,29.52,WNW,299,5.0,8.0,0,0.00,,,0.00,meteohub,2013-03-04 23:45:00,
2013-03-04 18:50:00,32.5,55.9,29.52,NW,313,8.0,8.0,0,0.00,,,0.00,meteohub,2013-03-04 23:50:00,
2013-03-04 18:55:00,32.7,55.9,29.53,WNW,296,8.0,8.0,0,0.00,,,0.00,meteohub,2013-03-04 23:55:00,
2013-03-04 19:00:00,32.7,55.9,29.53,WNW,285,13.0,13.0,0,0.00,,,0.00,meteohub,2013-03-05 00:00:00,
2013-03-04 19:05:00,32.7,55.9,29.53,WNW,282,10.0,13.0,0,0.00,,,0.00,meteohub,2013-03-05 00:05:00,
2013-03-04 19:10:00,32.5,55.9,29.53,NNW,329,7.0,13.0,0,0.00,,,0.00,meteohub,2013-03-05 00:10:00,
2013-03-04 19:15:00,32.7,55.9,29.53,NNW,327,7.0,13.0,0,0.00,,,0.00,meteohub,2013-03-05 00:15:00,
2013-03-04 19:21:00,32.7,55.9,29.54,NW,315,10.0,10.0,0,0.00,,,0.00,meteohub,2013-03-05 00:21:00,
2013-03-04 19:26:00,32.7,55.9,29.54,NNW,333,9.0,10.0,0,0.00,,,0.00,meteohub,2013-03-05 00:26:00,
2013-03-04 19:31:00,32.7,55.9,29.54,WNW,288,11.0,11.0,0,0.00,,,0.00,meteohub,2013-03-05 00:31:00,
2013-03-04 19:36:00,32.5,55.9,29.54,WNW,292,7.0,11.0,0,0.00,,,0.00,meteohub,2013-03-05 00:36:00,
2013-03-04 19:41:00,32.7,55.0,29.55,NW,309,11.0,11.0,0,0.00,,,0.00,meteohub,2013-03-05 00:41:00,
2013-03-04 19:46:00,32.7,55.0,29.55,NW,315,9.0,11.0,0,0.00,,,0.00,meteohub,2013-03-05 00:46:00,
2013-03-04 19:51:00,32.7,55.0,29.55,WNW,288,10.0,11.0,0,0.00,,,0.00,meteohub,2013-03-05 00:51:00,
2013-03-04 19:56:00,32.7,55.0,29.55,NNW,333,14.0,14.0,0,0.00,,,0.00,meteohub,2013-03-05 00:56:00,
2013-03-04 20:01:00,32.7,55.0,29.55,WNW,300,9.0,14.0,0,0.00,,,0.00,meteohub,2013-03-05 01:01:00,
2013-03-04 20:07:00,32.7,55.0,29.56,WNW,302,10.0,14.0,0,0.00,,,0.00,meteohub,2013-03-05 01:07:00,
2013-03-04 20:12:00,32.5,55.0,29.56,WNW,295,11.0,14.0,0,0.00,,,0.00,meteohub,2013-03-05 01:12:00,
2013-03-04 20:17:00,32.5,55.0,29.57,WNW,293,8.0,14.0,0,0.00,,,0.00,meteohub,2013-03-05 01:17:00,
2013-03-04 20:22:00,32.5,55.0,29.57,NW,326,7.0,11.0,0,0.00,,,0.00,meteohub,2013-03-05 01:22:00,
2013-03-04 20:27:00,32.5,55.0,29.57,NNW,341,7.0,11.0,0,0.00,,,0.00,meteohub,2013-03-05 01:27:00,
2013-03-04 20:32:00,32.5,55.0,29.57,NW,312,8.0,11.0,0,0.00,,,0.00,meteohub,2013-03-05 01:32:00,
2013-03-04 20:37:00,32.7,55.0,29.57,NW,316,12.0,12.0,0,0.00,,,0.00,meteohub,2013-03-05 01:37:00,
2013-03-04 20:42:00,32.5,55.0,29.58,NNW,344,10.0,12.0,0,0.00,,,0.00,meteohub,2013-03-05 01:42:00,
2013-03-04 20:47:00,32.5,55.0,29.58,NW,316,7.0,12.0,0,0.00,,,0.00,meteohub,2013-03-05 01:47:00,
2013-03-04 20:52:00,32.5,55.0,29.58,WNW,296,10.0,12.0,0,0.00,,,0.00,meteohub,2013-03-05 01:52:00,
2013-03-04 20:57:00,32.5,55.0,29.58,WNW,291,9.0,12.0,0,0.00,,,0.00,meteohub,2013-03-05 01:57:00,
2013-03-04 21:02:00,32.7,55.0,29.59,NW,305,7.0,10.0,0,0.00,,,0.00,meteohub,2013-03-05 02:02:00,
2013-03-04 21:07:00,32.5,55.0,29.59,WNW,289,5.0,10.0,0,0.00,,,0.00,meteohub,2013-03-05 02:07:00,
2013-03-04 21:12:00,32.7,55.0,29.59,WNW,284,8.0,10.0,0,0.00,,,0.00,meteohub,2013-03-05 02:12:00,
2013-03-04 21:17:00,32.5,55.0,29.59,North,358,5.0,9.0,0,0.00,,,0.00,meteohub,2013-03-05 02:17:00,
2013-03-04 21:22:00,32.5,55.0,29.60,WNW,296,7.0,8.0,0,0.00,,,0.00,meteohub,2013-03-05 02:22:00,
2013-03-04 21:27:00,32.7,55.0,29.60,WNW,282,10.0,10.0,0,0.00,,,0.00,meteohub,2013-03-05 02:27:00,
2013-03-04 21:32:00,32.7,55.0,29.60,NNW,341,8.0,10.0,0,0.00,,,0.00,meteohub,2013-03-05 02:32:00,
2013-03-04 21:37:00,32.5,55.0,29.60,WNW,285,9.0,10.0,0,0.00,,,0.00,meteohub,2013-03-05 02:37:00,
2013-03-04 21:42:00,32.5,55.0,29.60,NW,312,9.0,10.0,0,0.00,,,0.00,meteohub,2013-03-05 02:42:00,
2013-03-04 21:47:00,32.5,55.0,29.60,North,354,6.0,10.0,0,0.00,,,0.00,meteohub,2013-03-05 02:47:00,
2013-03-04 21:52:00,32.5,55.0,29.60,NW,307,9.0,9.0,0,0.00,,,0.00,meteohub,2013-03-05 02:52:00,
2013-03-04 21:57:00,32.5,55.0,29.60,West,279,9.0,9.0,0,0.00,,,0.00,meteohub,2013-03-05 02:57:00,
2013-03-04 22:02:00,32.5,55.0,29.61,NW,309,8.0,9.0,0,0.00,,,0.00,meteohub,2013-03-05 03:02:00,
2013-03-04 22:07:00,32.5,55.0,29.61,WNW,303,9.0,9.0,0,0.00,,,0.00,meteohub,2013-03-05 03:07:00,
2013-03-04 22:12:00,32.5,55.0,29.61,West,275,9.0,9.0,0,0.00,,,0.00,meteohub,2013-03-05 03:12:00,
2013-03-04 22:17:00,32.5,55.0,29.61,WNW,302,6.0,9.0,0,0.00,,,0.00,meteohub,2013-03-05 03:17:00,
2013-03-04 22:22:00,32.5,55.0,29.62,NW,309,7.0,9.0,0,0.00,,,0.00,meteohub,2013-03-05 03:22:00,
2013-03-04 22:27:00,32.4,55.0,29.62,WNW,299,9.0,9.0,0,0.00,,,0.00,meteohub,2013-03-05 03:27:00,
2013-03-04 22:32:00,32.5,55.0,29.62,NW,317,9.0,9.0,0,0.00,,,0.00,meteohub,2013-03-05 03:32:00,
2013-03-04 22:37:00,32.5,55.0,29.62,NW,313,6.0,9.0,0,0.00,,,0.00,meteohub,2013-03-05 03:37:00,
2013-03-04 22:42:00,32.5,55.0,29.62,West,274,6.0,9.0,0,0.00,,,0.00,meteohub,2013-03-05 03:42:00,
2013-03-04 22:47:00,32.4,55.0,29.62,WNW,303,6.0,9.0,0,0.00,,,0.00,meteohub,2013-03-05 03:47:00,
2013-03-04 22:52:00,32.5,55.0,29.62,NNW,333,7.0,9.0,0,0.00,,,0.00,meteohub,2013-03-05 03:52:00,
2013-03-04 22:57:00,32.4,55.0,29.63,West,275,6.0,7.0,0,0.00,,,0.00,meteohub,2013-03-05 03:57:00,
2013-03-04 23:02:00,32.5,55.0,29.63,West,281,6.0,7.0,0,0.00,,,0.00,meteohub,2013-03-05 04:02:00,
2013-03-04 23:07:00,32.5,55.0,29.63,NW,317,6.0,7.0,0,0.00,,,0.00,meteohub,2013-03-05 04:07:00,
2013-03-04 23:12:00,32.5,55.0,29.63,WNW,282,5.0,7.0,0,0.00,,,0.00,meteohub,2013-03-05 04:12:00,
2013-03-04 23:17:00,32.5,55.0,29.64,West,272,6.0,6.0,0,0.00,,,0.00,meteohub,2013-03-05 04:17:00,
2013-03-04 23:22:00,32.5,55.0,29.64,WNW,295,7.0,7.0,0,0.00,,,0.00,meteohub,2013-03-05 04:22:00,
2013-03-04 23:27:00,32.5,55.0,29.64,NW,305,10.0,10.0,0,0.00,,,0.00,meteohub,2013-03-05 04:27:00,
2013-03-04 23:32:00,32.5,55.0,29.64,West,274,6.0,10.0,0,0.00,,,0.00,meteohub,2013-03-05 04:32:00,
2013-03-04 23:37:00,32.5,55.0,29.64,WNW,289,6.0,10.0,0,0.00,,,0.00,meteohub,2013-03-05 04:37:00,
2013-03-04 23:42:00,32.5,55.0,29.65,WNW,295,5.0,10.0,0,0.00,,,0.00,meteohub,2013-03-05 04:42:00,
2013-03-04 23:47:00,32.5,55.0,29.65,NW,309,9.0,10.0,0,0.00,,,0.00,meteohub,2013-03-05 04:47:00,
2013-03-04 23:52:00,32.5,55.0,29.65,West,275,6.0,9.0,0,0.00,,,0.00,meteohub,2013-03-05 04:52:00,
2013-03-04 23:57:00,32.5,55.0,29.65,WNW,291,7.0,9.0,0,0.00,,,0.00,meteohub,2013-03-05 04:57:00,